Fort Knox, KY

3:40 AM EDT on May 26, 2017 (GMT -0400)
Godman Army Air Field

Weather History for KFTK - September, 2013

Change the Weather History Date:

Sunday, September 22, 2013

  Actual Average Record
Temperature  
Mean Temperature 60 °F -  
Max Temperature 69 °F 74 °F 95 °F (2010)
Min Temperature 51 °F 52 °F 39 °F (1999)
Degree Days  
Heating Degree Days 5    
Growing Degree Days 10 (Base 50)    
Moisture  
Dew Point 50 °F    
Average Humidity 73    
Maximum Humidity 90    
Minimum Humidity 48    
Precipitation  
Precipitation 0.00 in - - ()
Sea Level Pressure  
Sea Level Pressure 29.95 in    
Wind  
Wind Speed 5 mph (NNE)    
Max Wind Speed 12 mph    
Max Gust Speed -    
Visibility 10 miles    
Events      
Averages and records for this station are not official NWS values.
T = Trace of Precipitation, MM = Missing Value Source: NWS Daily Summary

Daily Weather History Graph

Daily Weather History Graph

Search for Another Location

Airport or City:

Trip Planner

Search our weather history database for the weather conditions in past years. The results will help you decide how hot, cold, wet, or windy it might be!

Date:

Astronomy

Sep. 22, 2013 Rise Set
Actual Time 7:31 AM EDT 7:40 PM EDT
Civil Twilight 7:05 AM EDT 8:06 PM EDT
Nautical Twilight 6:34 AM EDT 8:37 PM EDT
Astronomical Twilight 6:03 AM EDT 9:08 PM EDT
Moon 9:34 PM EDT (9/22) 10:47 AM EDT (9/22)
Length of Visible Light 13h 01m
Length of Day
12h 08m
Waning Gibbous, 89% of the Moon is Illuminated
Sep 22
Waning Gibbous
Sep 26
Last Quarter
Oct 4
New
Oct 11
First Quarter
Oct 18
Full

Hourly Weather History & Observations

Time (EDT) Temp. Dew Point Humidity Pressure Visibility Wind Dir Wind Speed Gust Speed Precip Events Conditions
12:58 AM 54.0 °F 50.0 °F 86% 29.89 in 10.0 mi NNW 5.8 mph - N/A   Clear
1:58 AM 54.3 °F 49.6 °F 84% 29.89 in 10.0 mi NNW 4.6 mph - N/A   Clear
2:58 AM 54.3 °F 49.1 °F 83% 29.90 in 10.0 mi North 4.6 mph - N/A   Clear
3:58 AM 54.0 °F 49.3 °F 84% 29.90 in 10.0 mi NNE 5.8 mph - N/A   Clear
4:58 AM 53.2 °F 48.9 °F 85% 29.91 in 10.0 mi NNE 4.6 mph - N/A   Clear
5:58 AM 52.0 °F 48.6 °F 88% 29.92 in 10.0 mi NNE 3.5 mph - N/A   Clear
6:58 AM 51.8 °F 48.6 °F 89% 29.94 in 10.0 mi NNE 4.6 mph - N/A   Clear
7:58 AM 51.3 °F 48.4 °F 90% 29.96 in 10.0 mi North 5.8 mph - N/A   Clear
8:58 AM 55.2 °F 50.4 °F 84% 29.98 in 10.0 mi NNE 4.6 mph - N/A   Clear
9:58 AM 58.3 °F 50.0 °F 74% 29.99 in 10.0 mi NE 5.8 mph - N/A   Clear
10:58 AM 61.7 °F 49.1 °F 63% 30.00 in 10.0 mi NNE 11.5 mph - N/A   Clear
11:58 AM 63.9 °F 50.4 °F 61% 30.00 in 10.0 mi North 8.1 mph - N/A   Scattered Clouds
12:58 PM 65.5 °F 50.0 °F 57% 29.99 in 10.0 mi North 6.9 mph - N/A   Partly Cloudy
1:58 PM 67.1 °F 50.0 °F 54% 29.97 in 10.0 mi North 8.1 mph - N/A   Partly Cloudy
2:58 PM 68.4 °F 48.7 °F 49% 29.96 in 10.0 mi NNE 8.1 mph - N/A   Clear
3:58 PM 68.9 °F 49.1 °F 49% 29.94 in 10.0 mi ENE 5.8 mph - N/A   Clear
4:58 PM 69.3 °F 48.7 °F 48% 29.93 in 10.0 mi North 5.8 mph - N/A   Clear
5:58 PM 68.9 °F 50.0 °F 51% 29.94 in 10.0 mi Variable 1.2 mph - N/A   Clear
6:58 PM 67.3 °F 49.6 °F 53% 29.94 in 10.0 mi NNE 4.6 mph - N/A   Clear
7:58 PM 59.0 °F 54.5 °F 85% 29.96 in 10.0 mi Calm Calm - N/A   Clear
8:58 PM 57.9 °F 53.2 °F 84% 29.97 in 10.0 mi NNE 3.5 mph - N/A   Clear
9:58 PM 55.8 °F 52.0 °F 87% 29.98 in 10.0 mi NE 3.5 mph - N/A   Clear
10:58 PM 56.7 °F 50.5 °F 80% 29.99 in 10.0 mi NE 3.5 mph - N/A   Clear
11:58 PM 56.7 °F 49.8 °F 78% 29.99 in 10.0 mi ENE 4.6 mph - N/A   Clear